[[[{"header":{"parameterUnit":"kt","parameterCategory":2,"dx":1,"dy":1,"la1":30.253999710083008,"la2":30.299108505249023,"lo1":-89.0895004272461,"lo2":-89.04439544677734,"nx":28,"ny":28,"refTime":"2022-10-20T21:00:00:Z","depth":"0","parameterNumber":2,"parameterNumberName":"U-component_of_CURRENTS"},"data":[0.1946,0.1971,0.2015,0.2037,0.207,0.2102,0.2127,0.2231,0.2354,0.2627,0.2894,0.3089,0.3717,0.4602,0.5142,0.5174,0.5069,0.51,0.4993,0.4904,0.4839,0.4778,0.4776,0.5389,0.5389,0.5141,0.5141,0.5141,0.197,0.1992,0.2067,0.2136,0.2141,0.2171,0.22,0.2237,0.2314,0.247,0.2614,0.309,0.3524,0.3911,0.4439,0.4647,0.4528,0.4711,0.4531,0.448,0.4277,0.427,0.4785,0.4785,0.4785,0.4785,0.4785,0.4784,0.2003,0.2041,0.2148,0.2188,0.2212,0.222,0.2235,0.2271,0.2332,0.2447,0.2547,0.2748,0.3163,0.3537,0.3679,0.4059,0.3794,0.406,0.4058,0.3889,0.3882,0.366,0.4002,0.4,0.3998,0.3996,0.3995,0,0.202,0.2099,0.2165,0.2228,0.2244,0.2272,0.2282,0.2292,0.2359,0.2411,0.2524,0.2618,0.2892,0.3116,0.3354,0.3415,0.3358,0.3393,0.35,0.3626,0.3559,0.3534,0.311,0.344,0.3435,0.3431,0.3428,0.3426,0.2099,0.211,0.2242,0.2266,0.2281,0.232,0.2314,0.2359,0.2358,0.2457,0.2463,0.2592,0.2651,0.2838,0.2923,0.3069,0.2985,0.3261,0.3108,0.3293,0.329,0.3133,0.3116,0.3368,0.3375,0.3381,0.3386,0,0.2176,0.2198,0.2232,0.2305,0.2309,0.2348,0.2356,0.2366,0.2401,0.2412,0.2423,0.2436,0.252,0.2515,0.2536,0.2541,0.2697,0.267,0.2857,0.2875,0.315,0.315,0.3371,0.3391,0.2962,0.2968,0.2972,0,0.2279,0.2258,0.2314,0.2287,0.2343,0.2311,0.234,0.2341,0.2349,0.2366,0.2334,0.2325,0.2246,0.2284,0.226,0.2376,0.2313,0.2367,0.2367,0.2457,0.2478,0.2543,0.2538,0.2174,0.2171,0.2169,0.2167,0,0.2344,0.2286,0.2302,0.2263,0.222,0.225,0.2244,0.2218,0.2233,0.2238,0.2233,0.2222,0.2187,0.2189,0.2139,0.2065,0.2204,0.2065,0.226,0.2274,0.2351,0.2367,0.2775,0.2164,0.2163,0.2162,0.2161,0,0.2333,0.2334,0.2276,0.2269,0.2245,0.2176,0.2191,0.2151,0.2136,0.2125,0.2105,0.2029,0.2034,0.1919,0.195,0.1895,0.1925,0.1893,0.1901,0.1944,0.186,0.2224,0.2537,0.2666,0.1993,0.1991,0.1989,0,0.2435,0.2348,0.2303,0.2204,0.2142,0.2107,0.2051,0.2035,0.1993,0.1949,0.1924,0.1834,0.1747,0.1724,0.1735,0.1661,0.1758,0.1644,0.1678,0.1681,0.1788,0.2047,0.219,0.2479,0.1955,0.1959,0.1961,0,0.2464,0.2358,0.2329,0.2302,0.2168,0.2114,0.2054,0.2016,0.2006,0.1883,0.1867,0.1714,0.1698,0.161,0.153,0.154,0.1708,0.1486,0.148,0.1612,0.1842,0.1985,0.2022,0.1629,0.1631,0.1633,0.1935,0,0.2417,0.2375,0.2344,0.2241,0.2157,0.2119,0.2017,0.1962,0.189,0.1782,0.1762,0.1565,0.1426,0.142,0.1305,0.138,0.1403,0.1285,0.118,0.1325,0.1445,0.1467,0.1141,0.1137,0.1133,0.113,0,0,0.2469,0.2448,0.24,0.231,0.2252,0.215,0.2084,0.192,0.1698,0.1701,0.1636,0.1344,0.1224,0.1163,0.1205,0.1127,0.117,0.1116,0.1256,0.1271,0.1284,0.1406,0.1431,0.1123,0.1122,0.112,0.1119,0,0.2473,0.2462,0.2446,0.2343,0.224,0.2085,0.2117,0.1862,0.177,0.1615,0.1468,0.1427,0.1166,0.1078,0.0995,0.1076,0.1024,0.1092,0.1221,0.1225,0.1245,0.1262,0.1386,0.1411,0.111,0.1111,0.1111,0,0.2477,0.2452,0.2455,0.2353,0.2166,0.2029,0.1909,0.1796,0.1705,0.1469,0.1253,0.1157,0.0981,0.0907,0.0892,0.084,0.09,0.0823,0.0841,0.0823,0.0818,0.0843,0.0864,0.0582,0.0581,0.058,0,0,0.2475,0.2492,0.2372,0.2345,0.2286,0.1996,0.1857,0.1754,0.1553,0.1431,0.1245,0.1093,0.0978,0.0938,0.0799,0.0726,0.07,0.0765,0.079,0.0811,0.0806,0.0806,0.083,0.0576,0.0576,0.0575,0,0,0.2439,0.2391,0.2357,0.2321,0.2191,0.1837,0.1696,0.1565,0.1309,0.1315,0.1082,0.1044,0.1017,0.0898,0.0867,0.0807,0.0699,0.0698,0.0883,0.0911,0.0936,0.0961,0.0716,0,0,0,0,0,0.2445,0.2438,0.2413,0.2394,0.2062,0.1881,0.1793,0.1529,0.1436,0.1361,0.1183,0.1099,0.0853,0.0817,0.0768,0.0836,0.0524,0.0533,0.0542,0.0761,0.0793,0.082,0,0,0,0,0,0,0.2437,0.2424,0.2409,0.211,0.2033,0.1872,0.1688,0.1598,0.1443,0.1418,0.1111,0.1086,0.0921,0.0831,0.0789,0.086,0.073,0.0528,0.0535,0.0542,0.0772,0.0798,0.0821,0,0,0,0,0,0.243,0.2419,0.2044,0.209,0.2023,0.1688,0.169,0.1616,0.1419,0.1211,0.1165,0.1275,0.0918,0.0882,0.0805,0.0885,0.0758,0.0743,0.0533,0.0539,0.0544,0.0785,0,0,0,0,0,0,0.2425,0.2152,0.2011,0.1969,0.219,0.1684,0.1625,0.1633,0.1214,0.117,0.1374,0.1363,0.0914,0.0887,0.0858,0.0906,0.0781,0.0766,0.0756,0.0537,0.0542,0.0546,0,0,0,0,0,0,0.216,0.2119,0.1985,0.2129,0.2095,0.1683,0.1634,0.1465,0.1224,0.1386,0.1368,0.1378,0.1151,0.0889,0.0867,0.0586,0.0799,0.0784,0.0774,0.0767,0.0541,0.0545,0,0,0,0,0,0,0.2131,0.2093,0.2132,0.2107,0.2076,0.1508,0.1527,0.1279,0.1117,0.1411,0.1134,0.1142,0.1171,0.113,0.0873,0.0601,0.059,0.0798,0.0788,0.0781,0.0776,0,0,0,0,0,0,0,0.2106,0.2515,0.2358,0.2089,0.2061,0.1584,0.1563,0.1543,0.1119,0.1126,0.1132,0.1139,0.0883,0.0867,0.0851,0.0613,0,0,0.08,0.0793,0,0,0,0,0,0,0,0,0.2515,0.2515,0.2357,0.2353,0.2349,0.1581,0.1564,0.1547,0.112,0.1126,0.1131,0.1136,0.0879,0.0866,0.0852,0,0,0,0,0,0,0,0,0,0,0,0,0,0,0,0.2357,0.2353,0,0.1578,0.1565,0.1551,0.1121,0.1125,0.113,0.1134,0.0875,0.0864,0.0853,0,0,0,0,0,0,0,0,0,0,0,0,0,0,0,0,0,0,0,0,0,0,0,0,0,0,0,0,0,0,0,0,0,0,0,0,0,0,0,0,0,0,0,0,0,0,0,0,0,0,0,0,0,0,0,0,0,0,0,0,0,0,0,0,0,0,0,0,0]}],[{"header":{"parameterUnit":"kt","parameterCategory":2,"dx":1,"dy":1,"la1":30.253999710083008,"la2":30.299108505249023,"lo1":-89.0895004272461,"lo2":-89.04439544677734,"nx":28,"ny":28,"refTime":"2022-10-20T21:00:00:Z","depth":"0","parameterNumber":3,"parameterNumberName":"V-component_of_CURRENTS"},"data":[-0.2688,-0.2534,-0.2511,-0.2258,-0.2179,-0.202,-0.1971,-0.1889,-0.1787,-0.1495,-0.1298,-0.1188,-0.1229,-0.1879,-0.2282,-0.2475,-0.2867,-0.3003,-0.3177,-0.2809,-0.2828,-0.2846,-0.2861,-0.2663,-0.2663,-0.367,-0.3675,-0.3679,-0.2817,-0.2777,-0.2706,-0.2578,-0.2447,-0.2493,-0.2428,-0.2342,-0.2185,-0.2051,-0.1936,-0.1843,-0.2024,-0.2289,-0.2567,-0.2734,-0.3147,-0.2858,-0.3186,-0.332,-0.302,-0.3038,-0.2875,-0.2875,-0.2875,-0.2875,-0.2875,-0.2875,-0.3043,-0.2988,-0.294,-0.2845,-0.2789,-0.2705,-0.2639,-0.2617,-0.2513,-0.2355,-0.2417,-0.225,-0.2439,-0.2614,-0.278,-0.2992,-0.3195,-0.3066,-0.3029,-0.3311,-0.3467,-0.3201,-0.3053,-0.3054,-0.3054,-0.3055,-0.3055,0,-0.3168,-0.3174,-0.3158,-0.3065,-0.302,-0.2986,-0.2953,-0.2911,-0.2928,-0.2838,-0.2729,-0.2682,-0.2739,-0.2782,-0.2898,-0.3013,-0.3321,-0.319,-0.3178,-0.3183,-0.3469,-0.36,-0.3379,-0.3238,-0.3239,-0.3241,-0.3241,-0.3242,-0.331,-0.3288,-0.33,-0.3255,-0.3267,-0.3243,-0.3197,-0.3244,-0.3186,-0.3124,-0.3061,-0.3011,-0.2952,-0.2986,-0.3132,-0.3213,-0.335,-0.3225,-0.3348,-0.3333,-0.3295,-0.357,-0.3694,-0.326,-0.3258,-0.3256,-0.3254,0,-0.34,-0.3437,-0.3403,-0.3442,-0.3443,-0.3403,-0.3386,-0.3334,-0.3338,-0.3245,-0.3235,-0.3247,-0.3219,-0.3307,-0.3324,-0.3423,-0.3487,-0.3427,-0.3391,-0.3376,-0.3374,-0.3349,-0.3489,-0.362,-0.3374,-0.3373,-0.3371,0,-0.355,-0.3517,-0.3587,-0.3553,-0.351,-0.354,-0.3471,-0.3465,-0.3452,-0.3399,-0.3478,-0.3418,-0.3534,-0.3515,-0.3596,-0.3581,-0.357,-0.3632,-0.3618,-0.36,-0.3595,-0.346,-0.342,-0.3664,-0.3665,-0.3666,-0.3667,0,-0.3646,-0.3663,-0.3626,-0.3615,-0.3608,-0.3597,-0.3581,-0.3565,-0.3554,-0.3561,-0.3523,-0.3605,-0.3588,-0.3634,-0.3675,-0.3731,-0.3641,-0.3712,-0.3664,-0.3661,-0.3496,-0.3481,-0.3493,-0.3668,-0.3668,-0.3669,-0.3669,0,-0.3752,-0.3777,-0.3714,-0.3726,-0.3718,-0.3658,-0.3613,-0.359,-0.3612,-0.3636,-0.3678,-0.3717,-0.3765,-0.3812,-0.3823,-0.3855,-0.3848,-0.3852,-0.3847,-0.3674,-0.3681,-0.348,-0.36,-0.3584,-0.3793,-0.3794,-0.3795,0,-0.3843,-0.3822,-0.3855,-0.3778,-0.3756,-0.3784,-0.3729,-0.3749,-0.3757,-0.3746,-0.3849,-0.3822,-0.3913,-0.3911,-0.3939,-0.3941,-0.3924,-0.3984,-0.3748,-0.3738,-0.3637,-0.3787,-0.3749,-0.3627,-0.3813,-0.3811,-0.381,0,-0.3907,-0.3953,-0.3944,-0.393,-0.392,-0.3916,-0.3872,-0.3881,-0.3853,-0.3898,-0.3872,-0.3898,-0.396,-0.3886,-0.3918,-0.3901,-0.3952,-0.3858,-0.385,-0.3744,-0.3853,-0.3816,-0.38,-0.3958,-0.3957,-0.3955,-0.3824,0,-0.3961,-0.3972,-0.3982,-0.3975,-0.3959,-0.3971,-0.3986,-0.3984,-0.3984,-0.3957,-0.4015,-0.394,-0.3843,-0.3937,-0.3839,-0.3897,-0.3841,-0.3824,-0.36,-0.3768,-0.37,-0.369,-0.3733,-0.3728,-0.3724,-0.372,0,0,-0.4002,-0.4037,-0.4113,-0.4103,-0.4093,-0.4127,-0.4093,-0.4024,-0.3955,-0.3961,-0.3953,-0.381,-0.374,-0.368,-0.376,-0.3744,-0.3678,-0.3578,-0.3734,-0.3737,-0.3739,-0.3679,-0.3674,-0.3713,-0.3711,-0.371,-0.3709,0,-0.4052,-0.4102,-0.412,-0.4122,-0.4161,-0.4084,-0.415,-0.4083,-0.404,-0.3947,-0.3869,-0.3898,-0.3671,-0.3603,-0.3523,-0.3682,-0.3501,-0.3739,-0.3736,-0.3703,-0.3712,-0.3718,-0.3663,-0.3662,-0.3698,-0.3699,-0.3699,0,-0.4079,-0.4139,-0.4158,-0.4209,-0.4129,-0.4072,-0.4058,-0.4045,-0.3989,-0.3787,-0.3633,-0.3612,-0.3439,-0.3384,-0.3375,-0.3265,-0.3277,-0.3288,-0.3311,-0.3194,-0.3145,-0.3159,-0.3172,-0.2983,-0.2981,-0.2979,0,0,-0.4109,-0.4162,-0.4204,-0.4221,-0.4229,-0.4103,-0.4048,-0.3995,-0.3877,-0.3784,-0.3635,-0.3494,-0.3412,-0.3332,-0.323,-0.3142,-0.3018,-0.3204,-0.3237,-0.3265,-0.3168,-0.3126,-0.3142,-0.2971,-0.2971,-0.2971,0,0,-0.4095,-0.4185,-0.4173,-0.4202,-0.4199,-0.4029,-0.3949,-0.3904,-0.3705,-0.3675,-0.3454,-0.3404,-0.341,-0.3259,-0.3182,-0.3181,-0.3045,-0.3052,-0.3229,-0.3268,-0.3301,-0.3205,-0.2967,0,0,0,0,0,-0.4196,-0.4215,-0.4208,-0.4219,-0.4079,-0.406,-0.4006,-0.3842,-0.3784,-0.3748,-0.3574,-0.3443,-0.3193,-0.3116,-0.306,-0.3144,-0.2871,-0.2889,-0.2906,-0.3121,-0.3165,-0.3202,0,0,0,0,0,0,-0.4201,-0.4217,-0.4208,-0.4081,-0.4052,-0.4049,-0.3886,-0.3825,-0.3786,-0.3766,-0.3467,-0.343,-0.3229,-0.3129,-0.3082,-0.3168,-0.2982,-0.2878,-0.2893,-0.2907,-0.3136,-0.3172,-0.3203,0,0,0,0,0,-0.4205,-0.4218,-0.4097,-0.4065,-0.4039,-0.3859,-0.3883,-0.3834,-0.3729,-0.351,-0.3463,-0.3656,-0.3229,-0.3184,-0.31,-0.3196,-0.3013,-0.2996,-0.2888,-0.29,-0.291,-0.3154,0,0,0,0,0,0,-0.4208,-0.3989,-0.4078,-0.4057,-0.413,-0.3849,-0.3816,-0.3843,-0.3466,-0.3431,-0.3687,-0.3676,-0.3228,-0.3193,-0.3159,-0.3221,-0.3038,-0.3021,-0.3011,-0.2897,-0.2906,-0.2915,0,0,0,0,0,0,-0.3987,-0.3972,-0.4063,-0.4155,-0.4137,-0.3842,-0.3815,-0.364,-0.3467,-0.3644,-0.3634,-0.3689,-0.339,-0.3199,-0.3172,-0.2887,-0.3057,-0.3041,-0.303,-0.3023,-0.2905,-0.2912,0,0,0,0,0,0,-0.3973,-0.3958,-0.4153,-0.414,-0.4123,-0.3796,-0.3673,-0.3559,-0.3492,-0.3658,-0.3502,-0.3506,-0.3407,-0.3368,-0.3181,-0.2908,-0.2892,-0.3056,-0.3045,-0.3038,-0.3033,0,0,0,0,0,0,0,-0.396,-0.4163,-0.4304,-0.4128,-0.4112,-0.3869,-0.3853,-0.3838,-0.3493,-0.3497,-0.3501,-0.3505,-0.3149,-0.3131,-0.3113,-0.2924,0,0,-0.3058,-0.305,0,0,0,0,0,0,0,0,-0.4159,-0.4162,-0.4305,-0.4305,-0.4306,-0.3866,-0.3854,-0.3841,-0.3494,-0.3497,-0.35,-0.3503,-0.3144,-0.313,-0.3115,0,0,0,0,0,0,0,0,0,0,0,0,0,0,0,-0.4305,-0.4305,0,-0.3864,-0.3854,-0.3844,-0.3494,-0.3497,-0.35,-0.3502,-0.314,-0.3128,-0.3116,0,0,0,0,0,0,0,0,0,0,0,0,0,0,0,0,0,0,0,0,0,0,0,0,0,0,0,0,0,0,0,0,0,0,0,0,0,0,0,0,0,0,0,0,0,0,0,0,0,0,0,0,0,0,0,0,0,0,0,0,0,0,0,0,0,0,0,0,0]}]],[[{"header":{"parameterUnit":"kt","parameterCategory":2,"dx":1,"dy":1,"la1":30.253999710083008,"la2":30.299108505249023,"lo1":-89.0895004272461,"lo2":-89.04439544677734,"nx":28,"ny":28,"refTime":"2022-10-20T21:00:00:Z","depth":"2","parameterNumber":2,"parameterNumberName":"U-component_of_CURRENTS"},"data":[-0.1756,-0.1603,-0.1515,-0.1264,-0.1095,-0.0876,-0.0754,-0.0569,-0.0383,-0.0207,-0.0028,0.0229,0.0479,0.053,0.0724,0.0878,0.0529,0.076,0.0965,0.0507,0.0455,0.0406,0.0295,0,0,0,0,0,-0.1809,-0.1662,-0.1483,-0.1268,-0.1114,-0.0995,-0.0789,-0.0706,-0.0533,-0.026,-0.0089,-0.0055,0.0344,0.0482,0.0886,0.1049,0.0782,0.084,0.0484,0.0443,0.0401,0.0341,0.0838,0.0834,0.0831,0.0827,0,0,-0.1869,-0.1749,-0.1587,-0.1394,-0.1211,-0.1029,-0.0919,-0.0784,-0.0633,-0.0459,-0.0377,-0.0162,0.0021,0.0525,0.0624,0.0729,0.0768,0.0605,0.0568,0.0528,0.0501,0.052,0.1027,0.1026,0.1026,0.1025,0.1024,0,-0.1938,-0.1856,-0.1728,-0.1519,-0.1366,-0.1197,-0.1059,-0.0979,-0.0915,-0.0801,-0.0625,-0.0491,-0.0113,0.015,0.0452,0.0485,0.0096,0.0291,-0.0057,-0.0242,-0.0243,-0.0289,-0.0346,0.0123,0.0117,0.0113,0.011,0.0107,-0.2037,-0.1938,-0.1747,-0.1639,-0.1574,-0.1422,-0.1311,-0.1266,-0.1186,-0.1051,-0.0962,-0.0775,-0.0632,-0.0304,-0.0172,0.0037,-0.0253,0.0135,-0.0086,-0.0467,-0.05,-0.0551,-0.0596,0.0043,0.0051,0.0058,0.0063,0,-0.2085,-0.2023,-0.1875,-0.1753,-0.1698,-0.1583,-0.1465,-0.1373,-0.1348,-0.121,-0.1182,-0.1169,-0.0987,-0.0976,-0.0857,-0.0835,-0.067,-0.056,-0.0548,-0.0525,-0.064,-0.0673,-0.0159,-0.0146,-0.0136,-0.0127,-0.0119,0,-0.2181,-0.2078,-0.199,-0.1922,-0.1753,-0.1762,-0.1612,-0.1587,-0.1528,-0.1427,-0.1504,-0.1403,-0.148,-0.1353,-0.1368,-0.1106,-0.1178,-0.1063,-0.1041,-0.1074,-0.1059,-0.1527,-0.1556,-0.1303,-0.1306,-0.1308,-0.1311,0,-0.2308,-0.2193,-0.2059,-0.203,-0.1952,-0.1887,-0.1841,-0.1802,-0.1743,-0.1698,-0.1647,-0.1626,-0.1588,-0.1536,-0.1531,-0.1658,-0.133,-0.1515,-0.1211,-0.1195,-0.109,-0.107,-0.1314,-0.1314,-0.1315,-0.1316,-0.1317,0,-0.2424,-0.2362,-0.2209,-0.2134,-0.2114,-0.2039,-0.1953,-0.1895,-0.1862,-0.1865,-0.1851,-0.1889,-0.184,-0.1958,-0.1817,-0.1929,-0.1877,-0.1866,-0.1854,-0.1592,-0.1696,-0.1366,-0.1096,-0.176,-0.1765,-0.1769,-0.1773,0,-0.2557,-0.2437,-0.246,-0.2317,-0.2262,-0.2309,-0.222,-0.2205,-0.2201,-0.2126,-0.218,-0.2111,-0.2231,-0.2229,-0.22,-0.2187,-0.2084,-0.2264,-0.2021,-0.201,-0.179,-0.1561,-0.1531,-0.1185,-0.183,-0.1824,-0.182,0,-0.2691,-0.2657,-0.2638,-0.2586,-0.2588,-0.2574,-0.2491,-0.2455,-0.2373,-0.2385,-0.2268,-0.2281,-0.2333,-0.2314,-0.2384,-0.2341,-0.2178,-0.2384,-0.2381,-0.2225,-0.1918,-0.1673,-0.1611,-0.2237,-0.2231,-0.2226,-0.1865,0,-0.2789,-0.2756,-0.2738,-0.2707,-0.2697,-0.267,-0.2693,-0.266,-0.2631,-0.2607,-0.2551,-0.2573,-0.2513,-0.2559,-0.2578,-0.2486,-0.2462,-0.2533,-0.2549,-0.2477,-0.2333,-0.2297,-0.2729,-0.273,-0.273,-0.2731,0,0,-0.2909,-0.2884,-0.2963,-0.2927,-0.2902,-0.2959,-0.289,-0.285,-0.2807,-0.2774,-0.2784,-0.2684,-0.271,-0.2637,-0.2623,-0.2669,-0.2592,-0.2669,-0.2542,-0.2522,-0.2503,-0.2361,-0.2326,-0.2732,-0.2732,-0.2732,-0.2732,0,-0.2971,-0.3019,-0.298,-0.299,-0.3004,-0.2988,-0.2989,-0.2961,-0.2896,-0.2839,-0.2792,-0.2783,-0.2757,-0.2727,-0.271,-0.2684,-0.2647,-0.2715,-0.2641,-0.2553,-0.2531,-0.2512,-0.2369,-0.2337,-0.2734,-0.2734,-0.2733,0,-0.3057,-0.3094,-0.3084,-0.3129,-0.3092,-0.3047,-0.3051,-0.3015,-0.2934,-0.2939,-0.2792,-0.2805,-0.2785,-0.276,-0.2756,-0.2779,-0.2682,-0.2786,-0.2783,-0.2712,-0.2617,-0.2595,-0.2575,-0.2826,-0.2827,-0.2827,0,0,-0.3102,-0.3104,-0.316,-0.3147,-0.3156,-0.3095,-0.3055,-0.3013,-0.2961,-0.29,-0.2863,-0.2821,-0.279,-0.2794,-0.2774,-0.2797,-0.2719,-0.2797,-0.2792,-0.2789,-0.2717,-0.2622,-0.2601,-0.2828,-0.2828,-0.2828,0,0,-0.3103,-0.316,-0.3156,-0.3161,-0.3163,-0.3109,-0.3039,-0.2993,-0.2888,-0.2847,-0.2817,-0.2811,-0.2782,-0.2804,-0.2813,-0.2794,-0.2812,-0.2811,-0.2785,-0.278,-0.2776,-0.2684,-0.2816,0,0,0,0,0,-0.3188,-0.3184,-0.3183,-0.3188,-0.3143,-0.3145,-0.312,-0.3003,-0.2922,-0.2879,-0.2805,-0.282,-0.278,-0.2788,-0.2797,-0.2795,-0.284,-0.2838,-0.2836,-0.2805,-0.2799,-0.2794,0,0,0,0,0,0,-0.3191,-0.3203,-0.3183,-0.3154,-0.3143,-0.3141,-0.3041,-0.3004,-0.2922,-0.2899,-0.2823,-0.282,-0.2803,-0.2786,-0.2793,-0.2791,-0.2814,-0.2839,-0.2837,-0.2836,-0.2803,-0.2798,-0.2794,0,0,0,0,0,-0.3193,-0.3203,-0.3179,-0.3146,-0.3136,-0.3011,-0.3036,-0.3005,-0.289,-0.2898,-0.288,-0.2808,-0.2805,-0.2809,-0.2791,-0.2786,-0.2809,-0.2812,-0.2838,-0.2836,-0.2835,-0.2801,0,0,0,0,0,0,-0.3195,-0.3104,-0.317,-0.316,-0.3133,-0.3002,-0.2984,-0.3007,-0.2889,-0.2874,-0.2893,-0.2879,-0.2808,-0.281,-0.2812,-0.2783,-0.2805,-0.2808,-0.281,-0.2837,-0.2836,-0.2835,0,0,0,0,0,0,-0.3101,-0.3097,-0.3163,-0.3153,-0.3139,-0.2995,-0.298,-0.302,-0.2894,-0.2884,-0.2871,-0.289,-0.288,-0.2811,-0.2813,-0.2871,-0.2802,-0.2805,-0.2807,-0.2808,-0.2836,-0.2835,0,0,0,0,0,0,-0.3095,-0.3091,-0.3152,-0.3142,-0.3128,-0.2976,-0.3028,-0.3013,-0.2797,-0.2892,-0.279,-0.2786,-0.289,-0.2884,-0.2813,-0.2871,-0.2871,-0.2803,-0.2804,-0.2805,-0.2806,0,0,0,0,0,0,0,-0.309,-0.3171,-0.3269,-0.3132,-0.312,-0.307,-0.3063,-0.3057,-0.2796,-0.2793,-0.279,-0.2788,-0.2788,-0.2791,-0.2794,-0.2871,0,0,-0.2802,-0.2803,0,0,0,0,0,0,0,0,-0.3167,-0.317,-0.3269,-0.3269,-0.3268,-0.3069,-0.3063,-0.3058,-0.2796,-0.2793,-0.2791,-0.2789,-0.2789,-0.2791,-0.2793,0,0,0,0,0,0,0,0,0,0,0,0,0,0,0,-0.3269,-0.3269,0,-0.3068,-0.3063,-0.3059,-0.2796,-0.2794,-0.2792,-0.279,-0.279,-0.2791,-0.2793,0,0,0,0,0,0,0,0,0,0,0,0,0,0,0,0,0,0,0,0,0,0,0,0,0,0,0,0,0,0,0,0,0,0,0,0,0,0,0,0,0,0,0,0,0,0,0,0,0,0,0,0,0,0,0,0,0,0,0,0,0,0,0,0,0,0,0,0,0]}],[{"header":{"parameterUnit":"kt","parameterCategory":2,"dx":1,"dy":1,"la1":30.253999710083008,"la2":30.299108505249023,"lo1":-89.0895004272461,"lo2":-89.04439544677734,"nx":28,"ny":28,"refTime":"2022-10-20T21:00:00:Z","depth":"2","parameterNumber":3,"parameterNumberName":"V-component_of_CURRENTS"},"data":[0.2048,0.2054,0.2059,0.202,0.1932,0.1779,0.1712,0.1634,0.1551,0.1467,0.1368,0.1105,0.0989,0.0938,0.1001,0.1156,0.1136,0.1165,0.0937,0.1337,0.1327,0.132,0.147,0,0,0,0,0,0.1978,0.1972,0.195,0.1862,0.1787,0.1669,0.1591,0.1539,0.1526,0.1442,0.1393,0.1127,0.105,0.0815,0.0844,0.0775,0.0902,0.0833,0.1151,0.1151,0.1148,0.1234,0.1173,0.1169,0.1166,0.1164,0,0,0.1879,0.1876,0.1804,0.1724,0.1628,0.1558,0.1519,0.148,0.1463,0.1393,0.1343,0.1234,0.1021,0.0646,0.0556,0.0549,0.0605,0.0847,0.0858,0.0864,0.0929,0.0893,0.0792,0.0788,0.0785,0.0782,0.078,0,0.1802,0.1731,0.1697,0.1588,0.1514,0.145,0.1387,0.1366,0.1299,0.1277,0.1261,0.1204,0.091,0.0859,0.0555,0.0593,0.0746,0.0731,0.048,0.1319,0.1297,0.1347,0.1353,0.1265,0.1263,0.1263,0.1262,0.1261,0.1745,0.1692,0.156,0.1522,0.1479,0.1387,0.1355,0.1289,0.1279,0.1202,0.1199,0.1014,0.0963,0.0736,0.063,0.0491,0.059,0.0719,0.0942,0.0715,0.0758,0.0781,0.0803,0.1249,0.125,0.1252,0.1253,0,0.1734,0.1666,0.1594,0.1506,0.1465,0.1408,0.1346,0.1324,0.1269,0.1224,0.1181,0.1125,0.0986,0.0895,0.0861,0.0856,0.0806,0.0773,0.1032,0.1077,0.0829,0.0843,0.0603,0.0596,0.059,0.0585,0.0581,0,0.1741,0.1685,0.1608,0.1566,0.1488,0.1466,0.1391,0.1375,0.1333,0.1307,0.1248,0.1215,0.1168,0.1085,0.1101,0.0985,0.1046,0.1048,0.1064,0.136,0.1371,0.1319,0.133,0.1241,0.1243,0.1245,0.1246,0,0.1796,0.1732,0.1652,0.1627,0.1594,0.1542,0.1517,0.1486,0.1468,0.1379,0.1346,0.1266,0.1208,0.1212,0.1179,0.1263,0.1127,0.1283,0.1149,0.1138,0.1356,0.1364,0.1248,0.1248,0.1248,0.1249,0.125,0,0.1853,0.1822,0.1733,0.17,0.1683,0.1642,0.1581,0.1554,0.1518,0.1494,0.1423,0.14,0.1332,0.1401,0.1338,0.1381,0.1389,0.1422,0.1419,0.1252,0.134,0.1473,0.1406,0.1389,0.1391,0.1393,0.1395,0,0.1907,0.185,0.1868,0.1792,0.176,0.1761,0.1733,0.1707,0.1682,0.1591,0.1612,0.1539,0.1554,0.151,0.1525,0.1524,0.1507,0.1584,0.1519,0.1513,0.1406,0.1292,0.1597,0.1433,0.1419,0.1416,0.1414,0,0.1972,0.197,0.1954,0.1933,0.1917,0.1893,0.1852,0.1821,0.1751,0.1696,0.1586,0.1622,0.1555,0.1568,0.1581,0.1602,0.1545,0.1619,0.162,0.155,0.1488,0.1343,0.1312,0.1638,0.1636,0.1634,0.1434,0,0.2067,0.2035,0.2011,0.202,0.1984,0.194,0.1964,0.1877,0.1798,0.1736,0.1686,0.1704,0.1631,0.167,0.1697,0.1659,0.1628,0.1706,0.1738,0.1698,0.1611,0.1596,0.1771,0.1771,0.1771,0.1771,0,0,0.2124,0.2128,0.2151,0.213,0.2102,0.2087,0.2033,0.1948,0.1824,0.1774,0.1762,0.1662,0.1715,0.1726,0.1691,0.1746,0.171,0.1737,0.1715,0.1709,0.1704,0.162,0.1606,0.1771,0.1771,0.1771,0.1771,0,0.2212,0.2201,0.2179,0.2165,0.2155,0.2103,0.2089,0.1942,0.1818,0.1787,0.1702,0.1694,0.1734,0.1723,0.1751,0.175,0.1748,0.1752,0.1702,0.1717,0.1711,0.1705,0.1622,0.161,0.1771,0.1771,0.1771,0,0.2288,0.2318,0.2306,0.2304,0.2218,0.2176,0.2066,0.1953,0.1882,0.185,0.167,0.1674,0.1719,0.1745,0.1764,0.1782,0.178,0.1823,0.1822,0.1758,0.1772,0.1765,0.1758,0.1843,0.1844,0.1844,0,0,0.2345,0.2336,0.2371,0.2331,0.2323,0.2159,0.206,0.1953,0.1865,0.1754,0.1705,0.1676,0.1711,0.1749,0.1764,0.1836,0.1803,0.1835,0.1832,0.1829,0.1766,0.1777,0.177,0.1846,0.1846,0.1846,0,0,0.2343,0.2396,0.2401,0.2353,0.2327,0.2157,0.2021,0.1895,0.1717,0.1668,0.1661,0.1674,0.1706,0.1738,0.1757,0.1776,0.1782,0.1782,0.1787,0.1784,0.178,0.1693,0.1771,0,0,0,0,0,0.2498,0.2447,0.2457,0.2457,0.2283,0.222,0.2162,0.193,0.1773,0.1668,0.161,0.1639,0.1715,0.1734,0.1759,0.1769,0.1872,0.1867,0.1863,0.1882,0.1878,0.1874,0,0,0,0,0,0,0.2499,0.2505,0.2458,0.2337,0.2298,0.2213,0.2042,0.1966,0.1778,0.1736,0.163,0.164,0.1656,0.1726,0.1748,0.1755,0.1764,0.187,0.1866,0.1862,0.1881,0.1877,0.1873,0,0,0,0,0,0.25,0.2504,0.2325,0.2322,0.2288,0.2031,0.2035,0.1972,0.1712,0.1797,0.1773,0.1559,0.1657,0.1677,0.1739,0.1743,0.175,0.1757,0.1867,0.1864,0.1862,0.1879,0,0,0,0,0,0,0.25,0.229,0.2305,0.228,0.233,0.2017,0.1971,0.1978,0.1775,0.1754,0.1752,0.1729,0.1658,0.1673,0.1689,0.1735,0.1738,0.1746,0.1751,0.1865,0.1863,0.186,0,0,0,0,0,0,0.2293,0.2271,0.2288,0.2312,0.2284,0.2008,0.1969,0.2068,0.1791,0.1729,0.1707,0.1749,0.1845,0.1671,0.1683,0.1822,0.1729,0.1737,0.1742,0.1745,0.1863,0.1861,0,0,0,0,0,0,0.2276,0.2256,0.2311,0.229,0.2264,0.1911,0.2097,0.2012,0.1543,0.1748,0.1536,0.1534,0.1863,0.1856,0.168,0.1813,0.1819,0.1729,0.1734,0.1738,0.174,0,0,0,0,0,0,0,0.2261,0.2495,0.2535,0.2272,0.2248,0.2068,0.2053,0.2038,0.1542,0.154,0.1537,0.1535,0.1686,0.1694,0.1703,0.1806,0,0,0.1728,0.1732,0,0,0,0,0,0,0,0,0.2493,0.2495,0.2535,0.2535,0.2534,0.2066,0.2054,0.2041,0.1542,0.154,0.1538,0.1536,0.1688,0.1695,0.1702,0,0,0,0,0,0,0,0,0,0,0,0,0,0,0,0.2535,0.2535,0,0.2064,0.2054,0.2044,0.1541,0.154,0.1538,0.1536,0.169,0.1695,0.1701,0,0,0,0,0,0,0,0,0,0,0,0,0,0,0,0,0,0,0,0,0,0,0,0,0,0,0,0,0,0,0,0,0,0,0,0,0,0,0,0,0,0,0,0,0,0,0,0,0,0,0,0,0,0,0,0,0,0,0,0,0,0,0,0,0,0,0,0,0]}]],[[{"header":{"parameterUnit":"kt","parameterCategory":2,"dx":1,"dy":1,"la1":30.253999710083008,"la2":30.299108505249023,"lo1":-89.0895004272461,"lo2":-89.04439544677734,"nx":28,"ny":28,"refTime":"2022-10-20T21:00:00:Z","depth":"4","parameterNumber":2,"parameterNumberName":"U-component_of_CURRENTS"},"data":[-0.0833,-0.0787,-0.0745,-0.0525,-0.0413,-0.0277,-0.0264,-0.0294,-0.0257,-0.0325,-0.0309,-0.0323,-0.0295,-0.0359,-0.0263,-0.0258,-0.0575,-0.0257,-0.0254,-0.0876,-0.0918,-0.0955,-0.1,0,0,0,0,0,-0.0866,-0.0816,-0.0748,-0.0646,-0.0523,-0.0485,-0.0443,-0.0508,-0.0571,-0.0406,-0.0612,-0.0385,-0.0337,-0.034,-0.0281,-0.033,-0.0618,-0.0256,-0.0785,-0.0902,-0.0949,-0.0976,0,0,0,0,0,0,-0.0895,-0.0872,-0.0837,-0.0782,-0.0694,-0.058,-0.0659,-0.0586,-0.0701,-0.0829,-0.0638,-0.0645,-0.0669,-0.0622,-0.0553,-0.0569,-0.0618,-0.0738,-0.079,-0.0835,-0.0822,-0.065,-0.0176,0,0,0,0,0,-0.0901,-0.0917,-0.0914,-0.0844,-0.0833,-0.0817,-0.0834,-0.0911,-0.1058,-0.1243,-0.1089,-0.1067,-0.084,-0.0886,-0.0859,-0.0853,-0.1347,-0.1141,-0.117,-0.1396,-0.1301,-0.1266,-0.1297,-0.1125,-0.113,-0.1134,-0.1137,0,-0.0925,-0.0917,-0.0947,-0.0915,-0.0963,-0.1055,-0.105,-0.1346,-0.1366,-0.1488,-0.14,-0.1393,-0.141,-0.1188,-0.1305,-0.1286,-0.1283,-0.126,-0.15,-0.1377,-0.1327,-0.1347,-0.1364,-0.1174,-0.1171,-0.1168,-0.1165,0,-0.0943,-0.0948,-0.0959,-0.1022,-0.1048,-0.1098,-0.131,-0.1334,-0.1631,-0.1679,-0.1777,-0.1941,-0.1828,-0.1924,-0.1905,-0.1882,-0.1781,-0.1639,-0.1962,-0.1915,-0.1429,-0.1431,-0.1235,-0.1222,-0.121,-0.12,-0.1192,0,-0.0972,-0.0987,-0.1017,-0.1049,-0.1068,-0.1201,-0.1302,-0.145,-0.1671,-0.1673,-0.1991,-0.2017,-0.229,-0.2224,-0.2249,-0.2041,-0.2223,-0.1929,-0.1855,-0.2289,-0.2287,-0.2274,-0.227,-0.2327,-0.2329,-0.2331,-0.2333,0,-0.0998,-0.1041,-0.1051,-0.1105,-0.1194,-0.1262,-0.1339,-0.1486,-0.156,-0.1818,-0.1947,-0.2155,-0.2262,-0.234,-0.2295,-0.2375,-0.2255,-0.2338,-0.195,-0.192,-0.2283,-0.2276,-0.2335,-0.2335,-0.2336,-0.2336,-0.2337,0,-0.1065,-0.1059,-0.1097,-0.1165,-0.1198,-0.1274,-0.1421,-0.1463,-0.1591,-0.1735,-0.1985,-0.2067,-0.2233,-0.2301,-0.2377,-0.2414,-0.2363,-0.2334,-0.2325,-0.2005,-0.1903,-0.2059,-0.2127,-0.2127,-0.2127,-0.2128,-0.2128,0,-0.1079,-0.1083,-0.1156,-0.1221,-0.125,-0.1393,-0.1414,-0.1502,-0.1609,-0.1704,-0.1848,-0.1985,-0.2088,-0.2237,-0.2305,-0.2305,-0.2304,-0.2338,-0.225,-0.2244,-0.1908,-0.19,-0.2373,-0.213,-0.2129,-0.2129,-0.2129,0,-0.1104,-0.1154,-0.1173,-0.1187,-0.1341,-0.1383,-0.1454,-0.1506,-0.1553,-0.1719,-0.1804,-0.1951,-0.2102,-0.2143,-0.2224,-0.2275,-0.2284,-0.228,-0.2281,-0.2143,-0.2282,-0.1939,-0.1903,-0.236,-0.2363,-0.2365,-0.2131,0,-0.1154,-0.1171,-0.1195,-0.1237,-0.1303,-0.1376,-0.1432,-0.1505,-0.1594,-0.1635,-0.1785,-0.189,-0.2043,-0.2069,-0.2075,-0.219,-0.2137,-0.2166,-0.2136,-0.2219,-0.2095,-0.2094,-0.209,-0.2089,-0.2089,-0.2088,0,0,-0.1167,-0.116,-0.1195,-0.1225,-0.1285,-0.1368,-0.1414,-0.1434,-0.1556,-0.1587,-0.1651,-0.1865,-0.1889,-0.1983,-0.2035,-0.2035,-0.2021,-0.2074,-0.2182,-0.2193,-0.2202,-0.209,-0.209,-0.2087,-0.2086,-0.2086,-0.2086,0,-0.1172,-0.1203,-0.1187,-0.1237,-0.1307,-0.1349,-0.1381,-0.1488,-0.1519,-0.1604,-0.1664,-0.1782,-0.1857,-0.1908,-0.1929,-0.2016,-0.199,-0.206,-0.2138,-0.2174,-0.2185,-0.2195,-0.2087,-0.2088,-0.2084,-0.2084,-0.2084,0,-0.1184,-0.1198,-0.12,-0.1229,-0.1273,-0.1317,-0.1359,-0.1445,-0.1469,-0.1533,-0.1626,-0.1702,-0.1738,-0.1821,-0.1865,-0.1856,-0.1951,-0.195,-0.1956,-0.1973,-0.2008,-0.2022,-0.2034,-0.1868,-0.1867,-0.1866,0,0,-0.1182,-0.1179,-0.1222,-0.1235,-0.1261,-0.1327,-0.136,-0.1425,-0.1496,-0.1536,-0.1602,-0.1679,-0.1717,-0.1764,-0.1801,-0.1864,-0.1837,-0.1921,-0.1932,-0.194,-0.1961,-0.1998,-0.2012,-0.1863,-0.1863,-0.1862,0,0,-0.1201,-0.1231,-0.1234,-0.1254,-0.1288,-0.1356,-0.1393,-0.1439,-0.1511,-0.1564,-0.1595,-0.1611,-0.1695,-0.1716,-0.1668,-0.1818,-0.178,-0.1789,-0.18,-0.1813,-0.1823,-0.1837,-0.1669,0,0,0,0,0,-0.1209,-0.1216,-0.1216,-0.1225,-0.1285,-0.1331,-0.1343,-0.142,-0.148,-0.1497,-0.1574,-0.1581,-0.1718,-0.1675,-0.168,-0.1742,-0.1818,-0.1826,-0.1834,-0.1861,-0.1874,-0.1886,0,0,0,0,0,0,-0.1213,-0.1221,-0.1217,-0.1278,-0.1293,-0.1331,-0.1389,-0.1408,-0.148,-0.1494,-0.1567,-0.158,-0.1599,-0.1672,-0.1677,-0.1737,-0.1667,-0.1821,-0.1828,-0.1834,-0.1866,-0.1877,-0.1886,0,0,0,0,0,-0.1216,-0.1223,-0.1299,-0.1279,-0.1293,-0.1387,-0.1391,-0.1408,-0.1476,-0.1514,-0.1532,-0.1542,-0.1595,-0.1606,-0.1675,-0.1736,-0.1664,-0.1666,-0.1826,-0.1831,-0.1836,-0.1871,0,0,0,0,0,0,-0.1219,-0.1234,-0.1304,-0.1311,-0.1307,-0.1389,-0.1404,-0.1408,-0.1495,-0.1512,-0.1485,-0.1494,-0.1592,-0.1601,-0.1608,-0.1737,-0.1662,-0.1663,-0.1665,-0.183,-0.1834,-0.1837,0,0,0,0,0,0,-0.1232,-0.1239,-0.1308,-0.1337,-0.1349,-0.139,-0.1403,-0.141,-0.1494,-0.1459,-0.147,-0.1488,-0.1587,-0.1597,-0.1603,-0.161,-0.166,-0.1661,-0.1663,-0.1663,-0.1833,-0.1836,0,0,0,0,0,0,-0.1237,-0.1243,-0.1336,-0.1344,-0.1355,-0.1442,-0.1398,-0.1458,-0.1516,-0.1454,-0.1525,-0.1529,-0.1582,-0.1589,-0.1599,-0.1603,-0.1608,-0.166,-0.1661,-0.1662,-0.1662,0,0,0,0,0,0,0,-0.1241,-0.1174,-0.1264,-0.135,-0.136,-0.1382,-0.1384,-0.1385,-0.1517,-0.1521,-0.1524,-0.1527,-0.165,-0.1652,-0.1654,-0.1597,0,0,-0.166,-0.166,0,0,0,0,0,0,0,0,-0.1173,-0.1174,-0.1264,-0.1266,-0.1268,-0.1382,-0.1384,-0.1385,-0.1518,-0.1521,-0.1523,-0.1526,-0.1651,-0.1652,-0.1654,0,0,0,0,0,0,0,0,0,0,0,0,0,0,0,-0.1264,-0.1266,0,-0.1382,-0.1384,-0.1385,-0.1518,-0.152,-0.1523,-0.1525,-0.1651,-0.1653,-0.1654,0,0,0,0,0,0,0,0,0,0,0,0,0,0,0,0,0,0,0,0,0,0,0,0,0,0,0,0,0,0,0,0,0,0,0,0,0,0,0,0,0,0,0,0,0,0,0,0,0,0,0,0,0,0,0,0,0,0,0,0,0,0,0,0,0,0,0,0,0]}],[{"header":{"parameterUnit":"kt","parameterCategory":2,"dx":1,"dy":1,"la1":30.253999710083008,"la2":30.299108505249023,"lo1":-89.0895004272461,"lo2":-89.04439544677734,"nx":28,"ny":28,"refTime":"2022-10-20T21:00:00:Z","depth":"4","parameterNumber":3,"parameterNumberName":"V-component_of_CURRENTS"},"data":[-0.0782,-0.082,-0.0834,-0.0902,-0.0953,-0.1065,-0.1106,-0.1156,-0.1064,-0.1076,-0.0933,-0.0894,-0.0646,-0.0823,-0.0402,-0.0358,-0.0296,-0.0103,-0.0097,-0.0057,-0.0069,-0.0079,-0.026,0,0,0,0,0,-0.0764,-0.0785,-0.0855,-0.0963,-0.1033,-0.11,-0.1201,-0.1294,-0.1343,-0.1166,-0.1236,-0.0981,-0.0715,-0.0644,-0.0418,-0.0471,-0.0253,-0.0201,-0.0168,-0.0064,-0.0077,-0.0249,0,0,0,0,0,0,-0.0754,-0.0793,-0.084,-0.0946,-0.1058,-0.1138,-0.1277,-0.1282,-0.1366,-0.136,-0.1259,-0.1115,-0.1031,-0.0756,-0.0519,-0.0321,-0.0264,-0.0184,-0.019,-0.0201,-0.035,-0.0378,-0.0126,0,0,0,0,0,-0.0735,-0.0765,-0.084,-0.0944,-0.1085,-0.1248,-0.14,-0.1443,-0.1552,-0.1641,-0.1464,-0.133,-0.1052,-0.0831,-0.0583,-0.0335,-0.0374,-0.021,-0.0216,-0.0312,-0.0322,-0.03,-0.0324,-0.0128,-0.0129,-0.013,-0.0131,0,-0.0707,-0.0746,-0.0902,-0.0971,-0.1082,-0.1293,-0.1402,-0.1617,-0.1659,-0.1708,-0.1637,-0.1509,-0.1411,-0.0945,-0.0795,-0.045,-0.0391,-0.0245,-0.0349,-0.0346,-0.0316,-0.0338,-0.0358,-0.0142,-0.0141,-0.014,-0.0139,0,-0.0693,-0.0752,-0.0866,-0.1036,-0.112,-0.1242,-0.151,-0.1606,-0.1732,-0.1771,-0.1782,-0.1733,-0.1485,-0.1305,-0.099,-0.0832,-0.0575,-0.0437,-0.061,-0.0575,-0.0367,-0.0384,-0.0159,-0.0155,-0.0152,-0.0149,-0.0147,0,-0.0703,-0.079,-0.092,-0.0968,-0.1126,-0.1238,-0.1434,-0.154,-0.1675,-0.1715,-0.177,-0.1715,-0.157,-0.1385,-0.1188,-0.0862,-0.0887,-0.0642,-0.0588,-0.0788,-0.08,-0.0713,-0.072,-0.0687,-0.0689,-0.0692,-0.0693,0,-0.068,-0.0818,-0.0903,-0.0946,-0.1099,-0.1211,-0.1326,-0.1469,-0.1567,-0.1681,-0.1708,-0.1662,-0.1589,-0.1422,-0.1175,-0.12,-0.0886,-0.09,-0.0668,-0.0659,-0.0729,-0.0731,-0.0696,-0.0697,-0.0697,-0.0698,-0.0699,0,-0.0701,-0.0753,-0.0855,-0.1003,-0.1037,-0.1144,-0.131,-0.1409,-0.1527,-0.1583,-0.1607,-0.159,-0.1522,-0.145,-0.1224,-0.1299,-0.1127,-0.1005,-0.0992,-0.0886,-0.085,-0.0778,-0.0805,-0.0807,-0.081,-0.0812,-0.0814,0,-0.0643,-0.0731,-0.0792,-0.0919,-0.097,-0.1045,-0.1144,-0.125,-0.1336,-0.1428,-0.1401,-0.1464,-0.1394,-0.1397,-0.1322,-0.1225,-0.1113,-0.1224,-0.0937,-0.0926,-0.0866,-0.0876,-0.1151,-0.0847,-0.0842,-0.0839,-0.0837,0,-0.0592,-0.0695,-0.0705,-0.0765,-0.0844,-0.0903,-0.1012,-0.1124,-0.1196,-0.1254,-0.1326,-0.1363,-0.1335,-0.1334,-0.1301,-0.1225,-0.115,-0.1163,-0.1157,-0.102,-0.0963,-0.0917,-0.0892,-0.1158,-0.1157,-0.1155,-0.086,0,-0.0568,-0.0633,-0.0657,-0.0738,-0.0794,-0.0846,-0.0911,-0.099,-0.1024,-0.1071,-0.1158,-0.116,-0.1191,-0.1204,-0.1182,-0.119,-0.1121,-0.1125,-0.1028,-0.1089,-0.095,-0.0933,-0.11,-0.1098,-0.1096,-0.1094,0,0,-0.0488,-0.0568,-0.0598,-0.0645,-0.0684,-0.0698,-0.0758,-0.0811,-0.0886,-0.0932,-0.091,-0.1003,-0.1009,-0.1058,-0.109,-0.1114,-0.1035,-0.106,-0.108,-0.1079,-0.1078,-0.0948,-0.0934,-0.109,-0.109,-0.1089,-0.1088,0,-0.0473,-0.0517,-0.0573,-0.0611,-0.0657,-0.0683,-0.0693,-0.0738,-0.0767,-0.0868,-0.0846,-0.0877,-0.0963,-0.0961,-0.0966,-0.1084,-0.0973,-0.1103,-0.1122,-0.1065,-0.1067,-0.1068,-0.0943,-0.0931,-0.1083,-0.1084,-0.1084,0,-0.0428,-0.0459,-0.0497,-0.0567,-0.0587,-0.064,-0.0593,-0.0633,-0.0691,-0.0648,-0.074,-0.0759,-0.0763,-0.0848,-0.0877,-0.0826,-0.0874,-0.0915,-0.0926,-0.0893,-0.0829,-0.0833,-0.0837,-0.078,-0.078,-0.0779,0,0,-0.0406,-0.0464,-0.0504,-0.0561,-0.0575,-0.059,-0.0611,-0.0612,-0.0635,-0.0644,-0.0668,-0.0683,-0.0726,-0.0735,-0.0786,-0.0853,-0.0765,-0.0881,-0.0896,-0.0908,-0.0883,-0.0822,-0.0827,-0.0776,-0.0776,-0.0776,0,0,-0.038,-0.0433,-0.0448,-0.051,-0.0553,-0.0569,-0.0594,-0.0585,-0.0622,-0.0608,-0.0595,-0.06,-0.0684,-0.0664,-0.0631,-0.0741,-0.0677,-0.0686,-0.0759,-0.0776,-0.079,-0.075,-0.0567,0,0,0,0,0,-0.0384,-0.0432,-0.0448,-0.0461,-0.0528,-0.058,-0.0589,-0.0577,-0.0533,-0.0566,-0.0576,-0.0535,-0.0643,-0.0614,-0.0626,-0.0672,-0.0742,-0.0748,-0.0754,-0.0867,-0.0886,-0.0901,0,0,0,0,0,0,-0.0389,-0.0406,-0.0445,-0.0465,-0.048,-0.0577,-0.0516,-0.0515,-0.0529,-0.0522,-0.0538,-0.0537,-0.0533,-0.0606,-0.0617,-0.0661,-0.0564,-0.0745,-0.075,-0.0754,-0.0873,-0.0889,-0.0902,0,0,0,0,0,-0.0393,-0.0406,-0.0516,-0.0464,-0.0477,-0.0479,-0.0513,-0.0512,-0.0521,-0.0531,-0.0529,-0.0506,-0.0535,-0.0542,-0.0613,-0.0657,-0.0556,-0.056,-0.0748,-0.0752,-0.0756,-0.0881,0,0,0,0,0,0,-0.0396,-0.0412,-0.0518,-0.0522,-0.0429,-0.0474,-0.048,-0.0508,-0.0528,-0.0527,-0.0499,-0.0493,-0.0538,-0.0543,-0.0549,-0.0657,-0.055,-0.0554,-0.0557,-0.0751,-0.0754,-0.0757,0,0,0,0,0,0,-0.0404,-0.0415,-0.0521,-0.0477,-0.0476,-0.0468,-0.0473,-0.0528,-0.0528,-0.0496,-0.0492,-0.0496,-0.0519,-0.0544,-0.0548,-0.0634,-0.0545,-0.0549,-0.0552,-0.0554,-0.0754,-0.0756,0,0,0,0,0,0,-0.0409,-0.0418,-0.0476,-0.0475,-0.0474,-0.0517,-0.0515,-0.058,-0.0506,-0.0495,-0.0497,-0.0493,-0.052,-0.0525,-0.0548,-0.0633,-0.0634,-0.0545,-0.0548,-0.055,-0.0551,0,0,0,0,0,0,0,-0.0412,-0.0351,-0.0494,-0.0474,-0.0473,-0.0556,-0.0557,-0.0558,-0.0505,-0.0502,-0.0498,-0.0495,-0.0522,-0.0527,-0.0531,-0.0631,0,0,-0.0545,-0.0547,0,0,0,0,0,0,0,0,-0.0347,-0.035,-0.0494,-0.0494,-0.0495,-0.0556,-0.0557,-0.0558,-0.0505,-0.0502,-0.0499,-0.0496,-0.0524,-0.0527,-0.0531,0,0,0,0,0,0,0,0,0,0,0,0,0,0,0,-0.0494,-0.0494,0,-0.0556,-0.0557,-0.0558,-0.0504,-0.0502,-0.0499,-0.0497,-0.0524,-0.0527,-0.053,0,0,0,0,0,0,0,0,0,0,0,0,0,0,0,0,0,0,0,0,0,0,0,0,0,0,0,0,0,0,0,0,0,0,0,0,0,0,0,0,0,0,0,0,0,0,0,0,0,0,0,0,0,0,0,0,0,0,0,0,0,0,0,0,0,0,0,0,0]}]]]